This is the latest recevied weather packets stored in our database for station/object DM2KB-13. If no packets are shown the sender has not sent any weather packets the latest 1 day(s).
| Time | Temp. | Humidity | Pressure | Rain* | Wind** | Luminosity | Snow |
|---|---|---|---|---|---|---|---|
| 1778025343 | 10° C | 98% | 1006 hPa | 4.57 mm | 0.89 m/s, 51° | 0 W/m² | - |
| 1778025043 | 10° C | 98% | 1006.1 hPa | 4.83 mm | 0.89 m/s, 19° | 0 W/m² | - |
| 1778024743 | 10° C | 98% | 1006.1 hPa | 5.08 mm | 1.34 m/s, 36° | 0 W/m² | - |
| 1778024442 | 10° C | 97% | 1006.2 hPa | 5.33 mm | 1.34 m/s, 65° | 0 W/m² | - |
| 1778024142 | 10° C | 97% | 1006.2 hPa | 5.08 mm | 0.89 m/s, 4° | 0 W/m² | - |
| 1778023842 | 10° C | 97% | 1006.3 hPa | 4.83 mm | 0.89 m/s, 344° | 0 W/m² | - |
| 1778023542 | 10° C | 97% | 1006.3 hPa | 4.83 mm | 0.89 m/s, 4° | 0 W/m² | - |
| 1778023241 | 10° C | 97% | 1006.3 hPa | 4.32 mm | 1.34 m/s, 72° | 0 W/m² | - |
| 1778022941 | 10.56° C | 97% | 1006.3 hPa | 4.57 mm | 1.34 m/s, 344° | 0 W/m² | - |
| 1778022641 | 10.56° C | 97% | 1006.4 hPa | 4.83 mm | 0.89 m/s, 29° | 0 W/m² | - |
| 1778022340 | 10.56° C | 97% | 1006.3 hPa | 4.57 mm | 0.89 m/s, 36° | 0 W/m² | - |
| 1778022040 | 10.56° C | 97% | 1006.4 hPa | 4.57 mm | 0.89 m/s, 32° | 0 W/m² | - |
| 1778021740 | 10.56° C | 97% | 1006.5 hPa | 4.32 mm | 0.89 m/s, 317° | 0 W/m² | - |
| 1778021440 | 10.56° C | 97% | 1006.5 hPa | 4.06 mm | 0.89 m/s, 350° | 0 W/m² | - |
| 1778021139 | 10.56° C | 97% | 1006.5 hPa | 3.56 mm | 0.89 m/s, 11° | 0 W/m² | - |
| 1778020839 | 10.56° C | 97% | 1006.5 hPa | 3.05 mm | 0.89 m/s, 18° | 0 W/m² | - |
| 1778020539 | 10.56° C | 97% | 1006.5 hPa | 2.79 mm | 0.89 m/s, 15° | 0 W/m² | - |
| 1778020238 | 10.56° C | 97% | 1006.5 hPa | 2.79 mm | 0.89 m/s, 26° | 0 W/m² | - |
| 1778019938 | 10.56° C | 97% | 1006.6 hPa | 2.29 mm | 0.89 m/s, 18° | 0 W/m² | - |
| 1778019638 | 10.56° C | 97% | 1006.6 hPa | 2.03 mm | 0.89 m/s, 48° | 0 W/m² | - |
| 1778019338 | 10.56° C | 97% | 1006.6 hPa | 1.78 mm | 0.89 m/s, 29° | 0 W/m² | - |
| 1778019037 | 10.56° C | 97% | 1006.6 hPa | 1.27 mm | 1.34 m/s, 358° | 0 W/m² | - |
| 1778018737 | 10.56° C | 97% | 1006.7 hPa | 1.02 mm | 0.89 m/s, 46° | 0 W/m² | - |
| 1778018437 | 10.56° C | 97% | 1006.7 hPa | 0.76 mm | 0.89 m/s, 14° | 0 W/m² | - |
| 1778018136 | 10.56° C | 97% | 1006.8 hPa | 0.76 mm | 0.89 m/s, 29° | 0 W/m² | - |
* Rain latest hour (hover to see other rain measurements)
** Current wind speed in m/s (hover to see current wind gust speed)